User: anonymous   Login
Location: Br�znic
(45.9167°N, 22.6500°E)
Time: 16:00:19
(UTC+00:00)
Language:

SL-08 RB Rocket - Orbit

View from above orbital plane
View from above orbital plane
View from above satellite
View from above satellite

Ground track
Ground track

The orbit data is extracted from the following two-line orbital elements,

1 26387U 00033D   21129.34482221  .00000052  00000-0  16877-4 0  9993
2 26387  97.7772 161.8182 0027715 121.3423 249.3845 14.68698956116591
Epoch (UTC): 09 May 2021 08:16:32
Eccentricity: 0.0027715
inclination: 97.7772°
perigee height: 646 km
apogee height: 685 km
right ascension of ascending node: 161.8182°
argument of perigee: 121.3423°
revolutions per day: 14.68698956
mean anomaly at epoch: 249.3845°
orbit number at epoch: 11659

The dashed part of the orbit path shows where the satellite is in the earth's shadow,  

DLR